UmKA 1 (RS40S)
1 57172U 23091G   26153.81536560  .00006372  00000-0  29288-3 0  9998
2 57172  97.5053 212.5691 0013372 163.2528 196.9151 15.20640463161823
CubeBel-2 (EU11S)
1 57175U 23091K   26153.85132331  .00013520  00000-0  48478-3 0  9998
2 57175  97.5055 216.9437 0010745 158.9058 201.2627 15.28788229162116
RS-38S
1 57189U 23091Z   26153.81351740  .00018223  00000-0  52875-3 0  9997
2 57189  97.5096 223.0157 0008756 120.1295 240.0817 15.35537115162483
SONATE-2
1 59112U 24043Q   26151.95414564  .00042877  00000-0  58322-3 0  9995
2 59112  97.5518 301.3715 0006170 252.6142 107.4438 15.57445778125368
GRBBeta
1 60237U 24128C   26153.68491361  .00004939  00000-0  34009-3 0  9994
2 60237  61.9909 267.1430 0042634 131.6394 228.8363 15.06525302104087
Curium One
1 60242U 24128H   26153.82322111  .00009514  00000-0  54744-3 0  9994
2 60242  61.9791 256.6422 0041809 128.0417 232.4463 15.12296028104286
ROBUSTA-3A
1 60243U 24128J   26153.84624256  .00009265  00000-0  54507-3 0  9992
2 60243  61.9872 258.9520 0043339 125.1751 235.3415 15.11470233104257
CatSat
1 60246U 24125J   26153.36529338  .00058323  00000-0  80064-3 0  9990
2 60246  97.2091   5.6918 0021585 232.8862 127.0421 15.56869735105085
HYPERVIEW-1G (RS66S)
1 61772U 24199AP  26153.75800012  .00126214  00000-0  95119-3 0  9992
2 61772  97.2896  32.7870 0002558 340.0558  20.0605 15.72119355132400
AO-123
1 61781U 24199AY  26153.82879556  .00008139  00000-0  23788-3 0  9997
2 61781  97.3013  22.6301 0013911   8.1361 352.0106 15.35453922131726
JINJUSat 1B
1 63210U 25052A   26153.65775303  .00018574  00000-0  58380-3 0  9991
2 63210  97.4025  50.3981 0005083 122.2530 237.9205 15.33020150 67874
NUSHSAT 1
1 63211U 25052B   26153.65907985  .00022475  00000-0  65527-3 0  9991
2 63211  97.3998  50.9163 0004905 122.4186 237.7533 15.35365875 67917
TEVEL2-4
1 63213U 25052D   26153.24759932  .00019833  00000-0  60334-3 0  9990
2 63213  97.3927  49.6197 0004091 133.0862 227.0724 15.34050425 67823
TEVEL2-5
1 63214U 25052E   26153.65787347  .00020334  00000-0  62137-3 0  9998
2 63214  97.3918  49.9824 0003943 132.0291 228.1288 15.33903531 67881
TEVEL2-6
1 63215U 25052F   26153.66985800  .00020445  00000-0  62551-3 0  9997
2 63215  97.3920  49.9788 0003894 130.5582 229.6000 15.33864805 67883
TEVEL2-1
1 63217U 25052H   26153.69393787  .00019888  00000-0  61840-3 0  9998
2 63217  97.3886  49.6443 0003899 141.0246 219.1278 15.33355434 67873
TEVEL2-3
1 63218U 25052J   26153.68908767  .00019366  00000-0  60131-3 0  9991
2 63218  97.3893  49.6596 0003768 141.6508 218.5003 15.33405790 67873
TEVEL2-2
1 63219U 25052K   26153.69432898  .00018883  00000-0  58726-3 0  9990
2 63219  97.3893  49.6468 0003735 142.6888 217.4614 15.33360944 67875
TEVEL2-9
1 63237U 25052AD  26153.65321981  .00017948  00000-0  59288-3 0  9991
2 63237  97.3951  49.0123 0006297 173.9352 186.1967 15.31424105 67805
TEVEL2-7
1 63238U 25052AE  26153.69139562  .00016963  00000-0  56548-3 0  9990
2 63238  97.3959  48.9721 0006335 174.3610 185.7704 15.31142762 67801
TEVEL2-8
1 63239U 25052AF  26153.69949325  .00017430  00000-0  58123-3 0  9998
2 63239  97.3957  48.9577 0006322 174.6090 185.5220 15.31126309 67800
SPIRONE
1 66657U 25274H   26153.31450700  .00002112  00000-0  20580-3 0  9991
2 66657  97.7487  82.8191 0013593  66.7356 293.5294 14.93480079 28006
K-HERO
1 66660U 25274L   26153.32327249  .00002136  00000-0  20579-3 0  9991
2 66660  97.7490  82.9783 0015413  70.3169 289.9713 14.93899068 28016
SNUGLITE-III DURI
1 66661U 25274M   26153.71334160  .00001569  00000-0  15242-3 0  9995
2 66661  97.7489  83.3830 0016125  69.8732 290.4221 14.93949923 28076
SAKHACUBE-CHOLBON
1 67290U 25313AU  26153.19743987  .00010804  00000-0  44019-3 0  9997
2 67290  97.3929 228.4210 0010279  55.5670 304.6538 15.24599291 23697
RS95S (QMR-KWT-2)
1 67291U 25313AV  26153.72351699  .00014804  00000-0  57909-3 0  9998
2 67291  97.3933 229.0883 0009676  53.8252 306.3880 15.25892743 23780
Ten-Koh2
1 68261U 25241B   26152.07912124  .00007745  00000-0  33165-3 0  9993
2 68261  51.6655  36.2788 0006617  95.4111 264.7622 15.23692419 12451
JACK-002
1 68417U 26067B   26153.67188455  .00007247  00000-0  34749-3 0  9998
2 68417  97.4567 112.4449 0001961  30.6272 329.5077 15.19200198  9747
DISCO 2
1 68431U 26067R   26151.84508636  .00010027  00000-0  48482-3 0  9997
2 68431  97.4593 110.6311 0004005  71.8634 288.3036 15.18800149  9468
HADES-SA (SpinnyONE)
1 68446U 26067AG  26153.33220635  .00018852  00000-0  91402-3 0  9993
2 68446  97.4412 111.8588 0009424 119.3546 240.8630 15.18523368  9674
PARUS-6U1
1 68456U 26067AS  26152.42811513  .00006509  00000-0  32935-3 0  9996
2 68456  97.4549 111.0372 0007464 112.2799 247.9226 15.17336373  9545
SAL-E
1 68458U 26067AU  26152.42573081  .00008424  00000-0  42300-3 0  9998
2 68458  97.4478 110.9814 0007665 119.3200 240.8801 15.17513709  9546
FSI-SAT 2
1 68792U 26088A   26153.34376270  .00004963  00000-0  33735-3 0  9991
2 68792  97.5061 302.9786 0015366 152.9612 207.2419 15.06706036  6054
OrigamiSat 2
1 68795U 26088D   26153.23786738  .00004836  00000-0  31442-3 0  9998
2 68795  97.5055 302.9670 0016995 127.9555 232.3212 15.08339736  6049
ARICA 2
1 68796U 26088E   26153.83229515  .00005769  00000-0  37472-3 0  9995
2 68796  97.5047 303.5472 0016848 125.7363 234.5435 15.08298747  6135
WASEDA-SAT-ZERO-II
1 68797U 26088F   26152.37045560  .00007830  00000-0  50514-3 0  9993
2 68797  97.5037 302.1246 0016669 130.5005 229.7679 15.08438851  5910
MANGARO-II-Piscus
1 68798U 26088G   26153.29130287  .00005214  00000-0  33523-3 0  9992
2 68798  97.5055 303.0466 0020297 130.0536 230.2477 15.08665251  6056
IO-86
1 40931U          25360.30710720  .00000000  00000-0  12800-3 0    00
2 40931   6.0006 332.5373 0012733 338.8432   8.1437 14.79075515    01
LILIUM-4                
1 71922C 26067AC  26089.50133053 -.00014632  00000+0 -74472-3 0    04
2 71922  97.4497  49.1617 0004341   5.9603 355.7042 15.16896692    16
